Regional Weather Roundup
Issued by NWS

Home | Current Version | Previous Version | Graphics & Text | Print | Product List | Glossary On
Versions: 1 2 3 4 5 6 7 8 9 10 11 12 13 14 15 16 17 18 19 20 21 22 23 24 25 26 27 28 29 30 31 32 33 34 35 36 37 38 39 40 41 42 43 44 45 46 47 48 49 50
000
ASUS43 KDMX 020207
RWRIA

WEATHER ROUNDUP FOR IOWA
NATIONAL WEATHER SERVICE DES MOINES IA
900 PM CDT TUE SEP 01 2015

NOTE: "FAIR" INDICATES FEW OR NO CLOUDS BELOW 12,000 FEET WITH NO
SIGNIFICANT WEATHER AND/OR OBSTRUCTIONS TO VISIBILITY.

* - THESE STATIONS ARE NOT NWS STATIONS...THUS NOT UNDER NWS
QUALITY CONTROL.  THEY ALSO DO NOT REPORT WEATHER SUCH
AS PRECIPITATION OR FOG.

IAZ001>003-012>014-020>022-031>034-043>046-020300-
   NORTHWEST IOWA

CITY           SKY/WX    TMP DP  RH WIND       PRES   REMARKS
CARROLL *      CLEAR     75  73  94 S8        29.93S
CHEROKEE *     MOCLDY    75  74  95 S3        29.90R
DENISON *      PTCLDY    77  72  83 S13       29.90S
LE MARS *      PTCLDY    79  73  83 SE12      29.88R HX  82
ORANGE CITY *  MOCLDY    79  73  83 S7        29.89S HX  82
SHELDON *      CLOUDY    77  73  88 SE9       29.89R
SIOUX CITY     PTCLDY    78  72  81 SE8       29.87R HX  80
SPENCER        MOCLDY    76  71  85 SE7       29.92R
STORM LAKE *   PTCLDY    75  73  94 S9        29.94R
$$

IAZ055>058-069>071-079>083-090>094-020300-
   SOUTHWEST IOWA

CITY           SKY/WX    TMP DP  RH WIND       PRES   REMARKS
ATLANTIC *     CLEAR     79  70  73 S9        29.94R HX  81
AUDUBON *      CLEAR     75  72  88 S3        29.96R
CLARINDA *     PTCLDY    79  70  73 S8        29.97R HX  81
COUNCIL BLFS * CLEAR     79  68  69 SE14      29.92R HX  81
CRESTON *      PTCLDY    73  70  88 S8        29.99S
LAMONI         PTCLDY    78  69  73 S6        30.00R HX  80
RED OAK *      CLOUDY    79  70  73 S9        29.94R HX  81
SHENANDOAH *   MOCLDY    81  70  69 SE10G17   29.94R HX  84
$$

IAZ047>049-059>061-072>074-084-020300-
   CENTRAL IOWA

CITY           SKY/WX    TMP DP  RH WIND       PRES   REMARKS
AMES           PTCLDY    73  70  90 S7        29.96R
ANKENY *       CLEAR     77  72  83 S5        29.96R
CHARITON *     CLEAR     77  70  78 S6        29.99R
DES MOINES     MOCLDY    80  69  69 S8        29.97R HX  83
GRINNELL*      PTCLDY    77  70  78 S7        30.00R
KNOXVILLE *    PTCLDY    77  70  78 S5        29.98R
MARSHALLTOWN   CLEAR     77  73  87 S7        29.97R
PELLA *        PTCLDY    77  73  88 SE5       30.00R
PERRY *          N/A     76  72  88 S3        29.96R
$$

IAZ004>006-015-016-023>025-035-036-020300-
   NORTH CENTRAL IOWA

CITY           SKY/WX    TMP DP  RH WIND       PRES   REMARKS
ALGONA *       CLEAR     77  73  88 S7        29.94R
CLARION *      CLEAR     75  72  88 SE8       29.95R
ESTHERVILLE    PTCLDY    73  71  93 S6        29.93R
FORT DODGE *   MOCLDY    79  72  78 S8        29.95R HX  82
MASON CITY     PTCLDY    72  70  93 S7        29.97R
FOREST CITY *    N/A     70  70 100 SE5       29.96R
IOWA FALLS *     N/A     77  73  88 S7        29.97S
$$

IAZ007>011-017>019-026>030-037>042-050>054-066-020300-
   NORTHEAST IOWA

CITY           SKY/WX    TMP DP  RH WIND       PRES   REMARKS
CEDAR RAPIDS   MOCLDY    76  73  91 S3        29.99R
CHARLES CITY * CLEAR     77  77 100 S7        29.97R
CLINTON *      CLEAR     75  72  88 S5        30.02R
DECORAH *      CLEAR     77  75  94 S6        29.97R
DUBUQUE        MOCLDY    75  71  87 SW7       30.00R
MONTICELLO *   MOCLDY    75  72  88 S5        29.99R
OELWEIN *      MOCLDY    75  73  94 S7        29.99R
WATERLOO       MOCLDY    77  73  87 S6        29.96R
$$

IAZ064-065-067-068-078-020300-
   EAST CENTRAL IOWA

CITY           SKY/WX    TMP DP  RH WIND       PRES   REMARKS
DAVENPORT      CLEAR     78  70  76 S7        30.01R HX  80
IOWA CITY      MOCLDY    76  71  85 S3        30.00R
MT. PLEASANT * PTCLDY    76  66  71 S6        30.01R
MUSCATINE *    PTCLDY    77  72  83 S6        30.00R
QUAD CITIES    CLEAR     80  70  71 S6        30.00R HX  83
$$

IAZ062-063-075>077-085>089-095>099-020300-
   SOUTHEAST IOWA

CITY           SKY/WX    TMP DP  RH WIND       PRES   REMARKS
BURLINGTON     CLEAR     78  71  79 S5        30.02R HX  80
FAIRFIELD *    PTCLDY    77  68  73 S5        30.01R
FORT MADISON * CLEAR     79  72  78 S3        30.03R HX  82
KEOKUK *       CLEAR     81  70  69 S5        30.01R HX  84
OSKALOOSA *      N/A     75  70  84 SE5       30.00R
CENTERVILLE *    N/A     75  72  88 S7        30.03R
OTTUMWA        MOCLDY    75  70  84 S7        29.98R
WASHINGTON *     N/A    N/A N/A N/A MISG        N/A
$$

ABBREVIATIONS USED IN REMARKS
   TC - TEMPERATURES IN CELSIUS
  WCI - WIND CHILL INDEX
   HX - HEAT INDEX
  VSB - VISIBILITY
$$



USA.gov is the U.S. government's official web portal to all federal, state and local government web resources and services.